Weather WX

World > North America > United States > Michigan

Daggett, Michigan Regional Weather

Lat: 45.46N, Lon: 87.6W
Wx Zone: MIZ012
Feedback

Daggett, MI Regional Weather

Expires:201906200300;;761118
ASUS43 KDTX 200210
RWRMI 
MICHIGAN HOURLY REGIONAL WEATHER ROUNDUP
NATIONAL WEATHER SERVICE DETROIT/PONTIAC MI
1000 PM EDT WED JUN 19 2019

NOTE: "FAIR" INDICATES FEW OR NO CLOUDS BELOW 12,000 FEET WITH NO
SIGNIFICANT WEATHER AND/OR OBSTRUCTION TO VISIBILITY.


MIZ004>006-011>014-085-200300-
CENTRAL UPPER MICHIGAN
  
CITY           SKY/WX    TMP DP  RH WIND       PRES   REMARKS
MANISTIQUE     FAIR      58  49  69 N7        29.78S                  
ESCANABA       FAIR      62  48  60 N6        29.79S                  
MENOMINEE      FAIR      61  54  77 CALM      29.77F                  
SAWYER-GWINN   CLEAR     57  46  67 NE6       29.81S                  
$$

SKY/WX - Weather  TMP - Temperature  DP - Dew Point  RH - Relative Humidity
WIND - Wind Direction/Speed PRES - Barometric Pressure VSB - Visibility
WCI - Wind Chill Index E13G22 Wind - East Wind 13 mph/Gusts of 22 mph